Location: München
(48.1351°N, 11.5820°E)
Time: 17:31:05
(UTC+01:00)

ISS - Pass Details

Date: 31 January 2020
Orbit: 415 x 422 km, 51.6° (Epoch: 26 February)

Event Time Altitude Azimuth Distance (km) Brightness Sun altitude
Rises 17:38:44 0° 274° (W) 2,378 1.5 -5.1°
Reaches altitude 10° 17:40:54 10° 280° (W) 1,513 0.2 -5.5°
Maximum altitude 17:44:11 45° 355° (N) 588 -3.1 -6.0°
Drops below altitude 10° 17:47:27 10° 70° (ENE) 1,510 -1.6 -6.5°
Enters shadow 17:47:44 - 71° (ENE) 1,622 -1.5 -6.5°
